Location: Altenhof
(50.2418°N, 10.8789°E)
Time: 08:20:14
(UTC+00:00)

Cosmos 1151 Rocket - Pass Details

Date: 18 February 2020
Orbit: 592 x 616 km, 82.5° (Epoch: 03 April)

Event Time Altitude Azimuth Distance (km) Brightness Sun altitude
Rises 05:40:32 0° 184° (S) 2,839 6.5 -7.5°
Reaches altitude 10° 05:42:44 10° 183° (S) 1,944 5.7 -7.1°
Maximum altitude 05:47:01 78° 99° (E) 627 3.3 -6.4°
Drops below altitude 10° 05:51:24 10° 13° (NNE) 1,976 5.7 -5.8°
Sets 05:53:38 0° 12° (NNE) 2,889 6.5 -5.4°
